Location: Cambroso
(45.2833°N, 12.0850°E)
Time: 15:20:21
(UTC+00:00)

X-37B - Pass Details

Date: 21 January 2021
Orbit: 383 x 391 km, 45.0° (Epoch: 10 February)

Event Time Altitude Azimuth Distance (km) Brightness Sun altitude
Rises 18:07:32 0° 252° (WSW) 2,271 5.9 -21.6°
Reaches altitude 10° 18:09:36 10° 250° (WSW) 1,418 4.5 -21.9°
Enters shadow 18:11:57 44° 232° (SW) 554 1.7 -22.3°
